This demonstration page uses our WeatherBlox Daily Observations layout. Learn more.

Left ArrowRight Arrow

39.08367, -84.50855

Hourly Observations for March 18, 2016

Temp ( °F °C ) Dew Point ( °F °C ) Humidity (%) Winds ( mph kmh ) Pressure ( in mb ) Visibility ( mi km ) Precip ( " mm )
12:53 am 00:53 Clear 37 2.8 34 1.1 89 89 SSW 7 11 30 1016 10 16.0934 N/A
1:53 am 01:53 Clear 40 4.4 34 1.1 79 79 N N/A 29.99 1016 10 16.0934 N/A
2:53 am 02:53 Clear 38 3.3 35 1.7 89 89 N N/A 30.01 1016 10 16.0934 N/A
3:53 am 03:53 Clear 38 3.3 33 0.6 83 83 N N/A 30 1016 10 16.0934 N/A
4:53 am 04:53 Clear 35 1.7 32 undefined 89 89 N N/A 30 1016 10 16.0934 N/A
5:53 am 05:53 Clear 33 0.6 32 undefined 96 96 N N/A 29.99 1016 10 16.0934 N/A
6:53 am 06:53 Clear 33 0.6 32 undefined 96 96 E 3 6 30.03 1017 10 16.0934 N/A
7:53 am 07:53 Sunny 35 1.7 32 undefined 89 89 N N/A 30.04 1017 10 16.0934 N/A
8:53 am 08:53 Sunny 37 2.8 35 1.7 93 93 N N/A 30.05 1018 10 16.0934 N/A
9:53 am 09:53 Sunny 44 6.7 38 3.3 79 79 SSW 3 6 30.06 1018 10 16.0934 N/A
10:53 am 10:53 Sunny 53 11.7 35 1.7 51 51 undefined N/A 30.06 1018 10 16.0934 N/A
11:53 am 11:53 Sunny 54 12.2 34 1.1 47 47 NW 9 15 30.08 1019 10 16.0934 N/A
12:53 pm 12:53 Sunny 56 13.3 34 1.1 44 44 NW 9 15 30.09 1019 10 16.0934 N/A
1:53 pm 13:53 Sunny 57 13.9 30 -1.1 36 36 VRB 3 6 30.08 1019 10 16.0934 N/A
2:53 pm 14:53 Mostly Sunny 60 15.6 29 -1.7 31 31 NNW 14 22 30.06 1018 10 16.0934 N/A
3:53 pm 15:53 Sunny 59 15 21 -6.1 23 23 W 13 20 30.04 1017 10 16.0934 N/A
4:53 pm 16:53 Sunny 59 15 21 -6.1 23 23 NNW 10 17 30.03 1017 10 16.0934 N/A
5:53 pm 17:53 Sunny 58 14.4 18 -7.8 21 21 NNW 10 17 30.02 1017 10 16.0934 N/A
6:53 pm 18:53 Sunny 56 13.3 18 -7.8 22 22 NW 12 19 30.03 1017 10 16.0934 N/A
7:53 pm 19:53 Clear 53 11.7 13 -10.6 20 20 NNW 5 7 30.05 1018 10 16.0934 N/A
8:53 pm 20:53 Clear 51 10.6 17 -8.3 26 26 N 7 11 30.05 1018 10 16.0934 N/A
9:53 pm 21:53 Cloudy 51 10.6 19 -7.2 28 28 N 6 9 30.06 1018 10 16.0934 N/A
10:53 pm 22:53 Mostly Cloudy 49 9.4 25 -3.9 39 39 ENE 3 6 30.08 1019 10 16.0934 N/A
11:53 pm 23:53 Cloudy 46 8 28 -2 50 50 NE 5 7 30.09 1019 10 16.0934 N/A

Powered by AerisWeather